Location: Newark
(50.0306°N, 2.3272°E)
Time: 18:24:29
(UTC+00:00)

Transit 2A Rocket - Pass Details

Date: 13 December 2019
Orbit: 593 x 910 km, 66.7° (Epoch: 20 January)

Event Time Altitude Azimuth Distance (km) Brightness Sun altitude
Rises 14:08:23 0° 157° (SSE) 2,949 8.5 10.2°
Reaches altitude 10° 14:12:34 10° 120° (ESE) 1,985 7.2 9.8°
Maximum altitude 14:13:35 11° 106° (ESE) 1,928 7.0 9.7°
Drops below altitude 10° 14:14:35 10° 93° (E) 1,965 6.9 9.6°
Sets 14:18:38 0° 55° (NE) 2,846 7.4 9.3°
